THOR ABLESTAR DEB, 5748

Orbit data source: Space-Track

THOR ABLESTAR DEB, 5748 is space debris in LEO originally from a launch on Thu, 29 Jun 1961 UTC launched from the Air Force Eastern Test Range (AFETR). Debris objects in space refer to the collection of defunct objects orbiting the Earth. Examples of debris include non-operational satellites, rocket bodies, and fragments generated from explosions, collisions, or faulty payload assembly.

Loading next visibility...
Identifier
5748, 1961-015JX
Orbit
LEO
Country
Flag of USUS
Related business
Manufacturer
Unknown
Mission
Spacecraft
Bus & Motor
Unknown
Mass
Unknown
Launch date (UTC)
1961-06-29 (65 years ago)
Launch vehicle
Unknown
Launch site
Air Force Eastern Test Range (AFETR)
Object type
Payload
Rocket body
Debris
Shape & HBR
Unknown shape, 0.1 m
Radar Cross Section
Small (<0.1 m²)

Expand to show TLE details & history
Last TLE update: 17 hours ago

TLE from 17 hours ago
0 THOR ABLESTAR DEB
1 05748U 61015JX  26065.42486699  .00000933  00000-0  11231-2 0  9999
2 05748  67.5582 315.7525 0111903 134.2677  44.2203 13.68120187140593
Epoch: 2026-03-06T10:11Z
TLE epoch observation values (Epoch: 2026-03-06T10:11:48.507Z)
Latitude
0.46592°
Longitude
178.44789°
Altitude
949.605 km
Speed
7.407 km/s
True Right ascension
09h 02m 14s
True Declination
0° 27' 48"
Sunlit
Object was in full shadow at epoch
Visualization orbit readout
Latitude
Unknown
Longitude
Unknown
Altitude
Unknown
Speed
Unknown
Apparent Right ascension
Unknown
Apparent Declination
Unknown
Sunlit
N/A
Visualization observer readout
Local Sidereal Time
06:42:56
Azimuth
Unknown
Elevation
Unknown
Doppler factor
Unknown
Orbital elements
Apogee altitude
1,087.269 km
Perigee altitude
922.038 km
Semi-major axis
7,382.791 km
Eccentricity
0.01119
Inclination
67.5582°
RAAN
315.7525°
Arg. of periapsis
134.2677°
True anomaly
45.12362°
Mean anomaly
44.2203°
Eccentric anomaly
44.67106°
Mean motion
3.42147 °/min
Orbital period
105.22 mins
BSTAR
0.0011231

Documentation

Showing up to 5 results
|